• MPC Preparation (Info)

  • MPEC 2000-K39 : 2000 KD41

    The following Minor Planet Electronic Circular may be linked-to from your own Web pages, but must not otherwise be redistributed electronically.

    A form allowing access to any MPEC is at the bottom of this page.


    Read MPEC 2000-K38 Read MPEC 2000-K40


    M.P.E.C. 2000-K39                                Issued 2000 May 31, 20:49 UT
    
         The Minor Planet Electronic Circulars contain information on unusual
             minor planets and routine data on comets.  They are published
       on behalf of Commission 20 of the International Astronomical Union by the
              Minor Planet Center, Smithsonian Astrophysical Observatory,
                              Cambridge, MA 02138, U.S.A.
    
                 Prepared using the Tamkin Foundation Computer Network
    
                 BMARSDEN@CFA.HARVARD.EDU or GWILLIAMS@CFA.HARVARD.EDU
              URL http://cfa-www.harvard.edu/iau/mpc.html  ISSN 1523-6714
    
                                       2000 KD41
    
    Observations:
         K00K41D  C2000 04 27.30139 14 10 27.09 -03 43 43.8          18.9 R      699
         K00K41D  C2000 04 27.32040 14 10 25.86 -03 43 34.5                      699
         K00K41D  C2000 04 27.33937 14 10 24.71 -03 43 25.6                      699
         K00K41D  C2000 04 27.35835 14 10 23.54 -03 43 16.4                      699
         K00K41D* C2000 05 26.20282 13 43 46.28 -00 49 30.1          18.8 R      699
         K00K41D  C2000 05 26.21864 13 43 45.67 -00 49 27.5                      699
         K00K41D  C2000 05 26.23446 13 43 45.02 -00 49 24.3                      699
         K00K41D  C2000 05 26.25030 13 43 44.32 -00 49 22.1                      699
         K00K41D 4C2000 05 27.24605 13 43 06.03 -00 46 36.9                      673
         K00K41D 4C2000 05 27.25457 13 43 05.66 -00 46 35.5                      673
         K00K41D 4C2000 05 27.26079 13 43 05.42 -00 46 34.5                      673
         K00K41D  C2000 05 27.26249 13 43 05.32 -00 46 35.2          19.5 R      858
         K00K41D  C2000 05 27.26733 13 43 05.10 -00 46 34.4          19.3 R      858
         K00K41D  C2000 05 27.27220 13 43 04.91 -00 46 33.8          19.3 R      858
         K00K41D  C2000 05 28.11916 13 42 34.10 -00 44 28.8          20.2 V      734
         K00K41D  C2000 05 28.12446 13 42 33.79 -00 44 28.8          19.7 V      734
         K00K41D  C2000 05 28.13067 13 42 33.56 -00 44 27.0          19.9 V      734
         K00K41D  C2000 05 28.13844 13 42 33.34 -00 44 26.7          20.1 V      734
         K00K41D  C2000 05 28.26056 13 42 28.69 -00 44 07.5          19.0 R      858
         K00K41D  C2000 05 28.26545 13 42 28.46 -00 44 07.0          19.2 R      858
         K00K41D  C2000 05 28.27080 13 42 28.29 -00 44 05.7          18.9 R      858
         K00K41D  C2000 05 28.51374 13 42 19.89 -00 43 32.9                      344
         K00K41D  C2000 05 28.54169 13 42 18.82 -00 43 29.9                      344
         K00K41D  C2000 05 28.54316 13 42 18.79 -00 43 29.5                      344
         K00K41D  C2000 05 28.54469 13 42 18.72 -00 43 29.3                      344
         K00K41D  C2000 05 28.54743 13 42 18.63 -00 43 29.0                      344
         K00K41D  C2000 05 28.62907 13 42 15.55 -00 43 18.4                      344
         K00K41D  C2000 05 28.64318 13 42 15.02 -00 43 16.6                      344
         K00K41D  C2000 05 29.18055 13 41 56.79 -00 42 06.6          19.9 V      691
         K00K41D  C2000 05 29.18958 13 41 56.45 -00 42 05.4          19.9 V      691
         K00K41D  C2000 05 29.19944 13 41 56.10 -00 42 04.3          19.9 V      691
         K00K41D  C2000 05 29.20360 13 41 55.96 -00 42 03.2          19.2 R      858
         K00K41D  C2000 05 29.20847 13 41 55.78 -00 42 02.9          19.2 R      858
         K00K41D  C2000 05 29.49131 13 41 46.40 -00 41 26.6                      344
         K00K41D  C2000 05 29.49743 13 41 46.19 -00 41 26.2                      344
         K00K41D  C2000 05 29.50586 13 41 45.87 -00 41 25.1                      344
         K00K41D  C2000 05 29.51382 13 41 45.59 -00 41 24.1                      344
         K00K41D  C2000 05 29.51956 13 41 45.39 -00 41 23.6                      344
         K00K41D  C2000 05 29.89271 13 41 32.94 -00 40 43.5                      557
         K00K41D  C2000 05 29.91020 13 41 32.33 -00 40 40.9                      557
         K00K41D 1C2000 05 30.25917 13 41 21.21 -00 40 03.4                      658
         K00K41D 1C2000 05 30.28654 13 41 20.21 -00 39 59.0                      658
    
    Observer details:
    344 Bohyunsan Optical Astronomy Observatory.  Observers S.-L. Kim, Y.-H. Park.
        1.8-m f/8 reflector + CCD.
    557 Ondrejov.  Observers P. Pravec, P. Kusnirak.  0.65-m f/3.6 reflector + CCD.
    658 Dominion Astrophysical Observatory.  Observer D. D. Balam.  1.82-m
        reflector + CCD.
    673 Table Mountain Observatory, Wrightwood.  Observer R. Martinez.  Measurer
        M. D. Hicks.  0.6-m reflector + CCD.
    691 Steward Observatory, Kitt Peak.  Observer A. E. Gleason.  0.9-m Spacewatch
        telescope.
    699 Lowell Observatory-LONEOS.  Observer B. A. Skiff.  Measurer B. W. Koehn.
        0.59-m LONEOS Schmidt + CCD.
    734 Farpoint Observatory.  Observer G. Hug.  0.30-m Schmidt-Cassegrain + CCD.
    858 Tebbutt Observatory, Edgewood.  Observer F. B. Zoltowski.  0.3-m f/3.3
        Schmidt-Cassegrain + CCD.
    
    Orbital elements:
    2000 KD41
    Epoch 2000 Apr. 26.0 TT = JDT 2451660.5                 Williams
    M 332.95443              (2000.0)            P               Q
    n   0.16209556     Peri.  154.15666     +0.58804273     +0.80759843
    a   3.3313631      Node   151.79643     -0.75749489     +0.56922052
    e   0.5956862      Incl.    5.41696     -0.28356171     +0.15418426
    P   6.08           H   17.0           G   0.15
    From 42 observations 2000 Apr. 27-May 30.
    
    Ephemeris:
    2000 KD41                a,e,i = 3.33, 0.60, 5                   q = 1.3469
    Date    TT    R. A. (2000) Decl.     Delta      r     Elong.  Phase     V
    2000 05 26    13 43.91   -00 50.0    1.109    1.984   138.5    19.8    19.7
    2000 06 05    13 38.86   -00 34.5    1.117    1.915   127.9    24.7    19.8
    2000 06 15    13 37.36   -00 47.2    1.135    1.847   118.3    29.0    19.9
    2000 06 25    13 39.62   -01 27.0    1.160    1.781   109.6    32.5    19.9
    2000 07 05    13 45.64   -02 31.1    1.187    1.717   102.0    35.4    20.0
    2000 07 15    13 55.27   -03 56.4    1.215    1.655    95.3    37.7    20.0
    2000 07 25    14 08.30   -05 39.4    1.240    1.596    89.5    39.5    20.1
    2000 08 04    14 24.58   -07 36.8    1.262    1.541    84.5    40.9    20.1
    2000 08 14    14 44.02   -09 44.8    1.282    1.491    80.2    42.0    20.0
    2000 08 24    15 06.53   -11 59.0    1.299    1.448    76.5    42.8    20.0
    2000 09 03    15 32.09   -14 14.5    1.314    1.411    73.5    43.3    20.0
    2000 09 13    16 00.67   -16 25.5    1.330    1.381    71.0    43.5    20.0
    2000 09 23    16 32.12   -18 24.8    1.348    1.361    68.9    43.5    20.0
    2000 10 03    17 06.25   -20 05.0    1.370    1.349    67.3    43.2    20.0
    2000 10 13    17 42.62   -21 18.7    1.398    1.347    66.0    42.6    20.0
    2000 10 23    18 20.57   -21 59.7    1.435    1.355    64.9    41.7    20.1
    2000 11 02    18 59.32   -22 04.1    1.482    1.373    63.9    40.5    20.1
    2000 11 12    19 37.99   -21 31.3    1.540    1.399    62.8    39.0    20.2
    2000 11 22    20 15.76   -20 23.6    1.610    1.433    61.6    37.3    20.3
    2000 12 02    20 52.04   -18 46.2    1.692    1.474    60.1    35.4    20.4
    
    Gareth V. Williams           (C) Copyright 2000 MPC           M.P.E.C. 2000-K39
    

    Read MPEC 2000-K38 Read MPEC 2000-K40


    MPEC number:

    Enter an MPEC number in one of the following forms:

    • 1997-B01 (the full form)
    • J97B01 (the packed version of the full form)
    • B01 (the abbreviated form)